RH
72 47 34 32 28 28 37 30 36 44 67 92 74 87 79 30 12 7 4 4 3 3 2 3 5 10 15 45 15 10 12 29 22 17 9 17 17 17 17 16 19 21 17 15 14 20 44
68 39 36 31 29 32 30 29 44 52 79 85 88 92 82 47 48 11 8 4 4 3 4 4 10 13 46 81 5 16 22 33 27 20 12 9 16 18 17 21 23 21 22 20 15 14 45
60 73 66 40 59 40 48 43 38 60 84 85 90 88 85 85 64 26 14 8 4 3 4 5 17 32 78 22 2 20 31 35 34 24 14 10 19 22 19 22 21 20 22 21 18 16 35
90 94 94 92 94 84 88 73 81 55 49 92 82 71 69 74 79 54 13 14 6 4 5 6 19 42 67 2 4 5 18 27 30 33 18 16 20 21 20 20 22 24 24 25 18 30 32
89 96 94 87 90 88 88 87 87 86 80 82 81 74 61 62 73 61 25 8 7 6 4 6 40 67 58 20 22 17 8 15 29 30 20 20 22 20 20 27 33 30 34 29 26 23 37
96 94 92 87 88 87 85 90 90 90 86 85 79 76 73 66 59 59 36 10 5 4 5 27 97 81 31 14 30 30 21 18 25 30 27 27 22 27 32 34 41 35 32 27 29 35 38
92 97 91 84 82 84 86 87 85 85 84 87 86 81 82 69 59 67 51 23 29 72 72 74 72 44 27 23 30 28 24 18 24 31 34 24 34 41 33 32 27 28 30 30 23 27 39
83 91 88 82 81 81 84 82 85 85 84 86 89 86 86 73 56 63 62 64 58 80 73 47 60 67 50 49 55 27 30 24 26 41 31 30 38 30 28 28 29 29 30 29 22 23 29
94 91 88 85 83 82 82 80 83 87 87 88 82 85 86 79 63 53 74 61 93 99 91 53 38 43 43 34 56 32 32 24 34 42 36 35 31 26 29 29 30 29 31 29 22 21 26
98 98 92 84 87 83 82 86 88 88 84 79 84 84 89 80 52 68 79 92 90 96 88 44 36 26 35 29 32 7 19 22 29 39 39 33 25 27 30 30 26 34 26 23 21 28 33
99 97 91 89 82 83 82 84 90 89 89 87 81 80 87 82 62 82 88 86 82 91 23 13 23 11 25 22 14 19 10 25 28 38 36 41 34 32 32 28 26 31 27 24 23 28 29
98 97 93 82 79 80 83 87 88 88 92 90 86 87 83 84 76 47 66 69 81 87 72 33 19 24 26 20 20 21 22 22 24 35 34 34 24 27 28 25 25 22 20 24 29 36 47
99 94 82 83 79 78 82 86 90 88 90 92 88 88 90 81 79 62 91 84 98 95 21 13 25 29 28 26 24 24 29 32 36 43 42 37 35 28 24 28 24 24 30 44 47 55 58
95 88 80 82 83 83 83 89 89 85 87 91 94 88 89 75 72 70 90 98 99 45 29 20 22 18 31 30 27 26 33 38 31 31 39 38 50 30 24 27 28 29 32 54 54 70 47
95 77 91 78 75 82 84 88 91 88 86 89 98 99 98 72 72 80 96 98 72 50 35 25 16 18 21 21 34 32 38 35 33 30 41 46 40 25 22 21 23 28 34 30 40 57 66
93 75 74 79 73 80 87 85 88 90 86 91 100 100 97 78 79 89 100 88 66 44 36 42 41 22 25 27 36 46 43 34 33 30 26 34 44 28 22 21 22 23 23 35 51 55 65
82 68 72 69 75 83 91 89 86 94 87 95 100 100 96 86 94 99 96 85 58 45 45 47 47 49 32 34 32 32 37 39 38 33 26 29 34 35 29 32 29 27 30 34 40 60 64
82 73 72 76 80 85 86 90 88 91 91 100 100 100 93 87 99 85 88 70 56 55 48 48 48 46 40 39 40 33 38 36 53 49 56 46 37 42 33 23 24 24 25 32 49 53 63
80 75 75 83 83 88 87 91 98 99 99 100 100 100 98 84 94 92 70 67 63 61 53 51 50 46 36 39 46 41 45 58 54 60 73 67 70 54 42 31 28 30 26 25 40 59 62
81 72 81 84 87 89 89 93 98 99 99 100 100 99 100 100 82 72 74 68 68 59 62 61 60 55 48 48 43 50 50 50 52 66 62 67 74 66 60 38 32 33 27 26 30 61 50
74 76 84 89 91 94 95 96 97 99 100 100 100 98 97 97 94 83 69 65 69 69 60 58 66 59 58 62 49 49 44 63 53 70 70 79 94 82 69 50 30 28 30 33 33 37 47
79 85 88 90 97 95 91 91 93 98 100 100 99 97 98 80 83 88 77 75 68 64 57 62 70 48 52 61 52 58 48 47 66 73 71 80 94 88 78 52 38 31 26 30 29 34 37
87 89 90 92 93 92 93 93 93 97 99 100 100 98 88 82 92 96 86 74 66 60 55 52 51 56 53 46 38 41 58 64 67 74 88 85 94 98 89 64 48 50 32 26 34 31 31
89 91 95 94 94 92 96 98 99 98 100 100 100 99 99 97 96 90 69 68 66 60 66 51 55 59 46 38 41 63 71 80 83 76 70 92 92 99 97 80 93 44 27 23 30 30 28
93 99 95 90 80 76 76 77 77 86 99 100 100 100 97 96 92 76 72 66 65 59 62 58 52 48 43 41 73 77 90 81 88 86 85 76 91 100 93 95 70 45 37 33 35 32 27
96 78 75 79 90 90 84 84 79 75 79 100 100 97 100 99 94 78 71 68 73 74 69 60 55 50 48 57 79 76 87 70 80 88 82 86 86 86 98 88 96 58 37 28 27 47 27
71 71 83 92 99 99 99 98 92 86 80 90 100 100 100 99 94 89 73 72 64 65 70 62 57 58 51 80 79 80 72 63 76 92 93 98 99 97 95 94 86 65 54 34 51 49 36
100 100 99 96 91 92 97 99 99 100 92 99 99 100 99 98 88 99 79 60 64 60 69 59 62 65 80 79 85 83 92 81 71 67 86 85 95 98 93 98 94 66 58 61 67 63 61
100 98 92 89 95 99 98 99 97 96 100 99 100 99 99 99 98 82 84 76 63 58 54 52 54 54 62 82 85 85 84 90 78 85 65 81 72 84 82 74 62 61 62 56 66 68 65
Wind_Speed
15 15 16 15 20 24 26 25 26 26 24 22 23 23 24 24 24 24 21 18 17 18 18 17 18 18 18 6 24 17 18 9 10 9 10 14 10 6 3 5 8 4 7 13 6 6 12
16 16 16 15 15 15 18 24 21 20 22 22 23 23 24 26 25 27 23 21 19 19 18 17 16 18 14 8 13 8 12 12 11 12 12 15 9 5 11 5 3 10 15 11 10 8 13
16 18 17 17 16 16 17 16 18 20 20 21 20 23 24 25 28 28 26 24 20 19 19 17 16 17 17 30 17 9 15 15 9 10 14 13 12 10 6 6 7 13 6 9 9 7 6
17 18 18 16 17 17 18 18 18 19 23 21 21 22 20 25 26 27 29 25 23 19 19 17 16 16 16 14 17 20 25 21 12 10 15 13 7 15 5 4 9 5 5 2 6 3 6
19 19 19 17 18 19 19 19 19 20 21 22 22 20 20 21 23 26 28 27 22 19 20 18 14 12 17 9 11 9 22 31 15 11 15 12 12 7 3 3 4 2 5 5 11 9 6
20 19 19 20 20 21 20 22 22 23 24 21 20 21 21 21 22 23 28 24 19 19 17 14 8 8 16 12 8 13 8 21 17 10 14 13 7 3 2 3 6 5 4 4 7 5 3
20 21 22 22 20 21 22 24 25 26 24 23 21 19 21 21 20 18 25 17 6 3 3 10 8 16 23 14 17 8 12 20 15 15 7 5 4 8 11 10 8 5 7 10 14 10 6
21 21 23 22 22 22 23 24 23 22 22 22 21 19 19 18 18 15 17 14 3 7 14 22 22 35 39 29 16 15 6 16 11 9 6 3 14 10 9 8 8 9 10 17 10 4 5
22 22 23 23 22 24 24 23 22 21 20 19 19 19 16 18 19 11 12 10 11 16 7 15 29 28 32 25 25 28 12 20 5 6 9 12 8 14 10 11 10 13 10 13 9 3 3
23 25 23 24 23 25 25 24 23 20 19 19 18 17 14 14 14 8 6 4 13 11 4 8 8 14 24 20 11 34 29 16 6 14 8 8 13 12 8 11 11 11 13 10 7 3 4
25 28 26 25 25 26 25 24 23 21 20 19 18 16 15 12 11 12 3 11 11 5 5 6 6 6 14 24 14 19 34 23 14 10 8 9 7 12 16 19 11 14 15 9 5 4 2
26 28 28 27 25 26 25 25 23 22 19 18 18 16 14 17 20 16 17 15 3 2 9 6 5 7 9 14 4 6 20 18 7 6 9 9 14 6 8 10 10 10 3 3 3 2 1
28 28 27 27 26 26 27 29 25 23 20 17 17 16 17 19 22 9 10 6 2 7 4 4 2 6 6 8 4 2 7 11 8 7 13 12 20 15 9 7 13 5 5 2 3 2 6
29 28 28 27 26 27 28 27 26 23 21 18 17 16 19 22 15 9 8 3 11 3 11 4 6 9 1 4 5 4 6 5 10 4 4 12 6 17 12 17 6 8 9 6 6 4 5
30 30 28 28 27 28 30 27 25 23 22 19 16 19 22 22 15 11 4 8 6 5 6 7 13 6 4 1 5 9 8 8 7 14 7 6 8 8 15 11 8 6 5 8 5 2 2
32 32 30 30 29 30 32 27 26 23 23 20 20 22 27 20 18 14 5 18 7 7 4 9 3 2 3 5 4 6 2 4 7 10 14 5 6 6 16 6 12 13 5 2 1 6 4
34 33 32 30 31 31 31 28 29 26 25 22 22 12 16 26 21 14 11 12 10 17 11 3 6 4 3 5 6 3 4 6 2 3 17 9 10 8 5 5 15 2 4 1 5 5 6
35 34 32 33 34 33 33 31 28 28 26 22 23 5 18 31 13 11 19 12 6 10 12 12 5 5 9 4 3 3 3 5 6 2 4 5 7 12 23 17 10 7 11 11 6 4 3
37 34 35 37 37 36 35 32 31 30 30 25 12 9 29 42 12 19 15 16 21 3 6 3 7 10 2 4 3 5 6 2 7 4 4 6 4 4 7 9 5 8 5 10 5 4 9
38 36 39 40 39 37 35 34 33 33 32 30 7 5 11 35 18 18 20 21 20 16 22 23 12 9 5 3 6 7 2 3 3 6 11 8 5 5 11 7 5 5 11 10 11 6 5
38 40 42 41 39 37 36 36 35 35 35 33 19 7 11 9 20 14 15 10 24 19 16 14 6 19 9 5 5 7 4 2 2 2 5 4 6 12 17 14 18 19 9 9 14 7 9
42 43 42 40 39 37 36 36 36 36 35 40 13 10 9 1 21 22 20 23 24 17 12 13 15 4 17 20 9 8 7 5 5 2 3 2 2 10 10 13 16 20 20 16 15 10 7
45 43 41 38 37 35 33 33 35 37 38 32 35 21 15 14 11 17 31 34 16 16 13 32 15 15 13 7 14 14 11 10 6 7 3 5 3 5 6 16 13 11 27 19 6 7 6
43 40 37 34 33 32 32 33 35 36 43 43 26 23 11 6 15 27 16 20 21 19 22 16 25 15 19 24 13 7 1 1 3 2 5 6 6 4 7 14 8 18 4 16 16 9 7
37 35 31 32 33 34 34 34 35 35 37 44 37 17 19 10 15 20 23 21 25 27 21 24 32 30 15 17 1 5 3 2 6 6 8 4 5 3 4 7 16 5 12 3 7 14 8
32 33 34 35 34 34 36 36 38 40 40 43 38 42 15 4 17 29 19 21 13 16 14 30 25 29 26 2 3 9 5 3 4 4 7 7 3 4 3 4 6 9 7 19 2 8 9
35 36 34 36 37 36 37 39 41 41 43 46 35 39 26 4 14 22 14 19 22 16 9 6 26 11 16 4 5 5 7 6 6 9 6 3 0 7 4 4 8 11 23 15 11 7 19
34 34 35 36 35 36 38 39 40 43 46 45 43 30 37 12 17 13 28 15 24 30 12 7 5 8 2 7 4 4 4 6 4 7 7 8 8 5 5 4 10 2 13 5 6 9 21
24 27 30 33 35 35 38 41 41 44 46 48 32 39 30 21 5 19 19 28 25 38 31 19 9 8 12 4 4 2 2 1 6 3 4 4 7 5 9 7 4 3 1 10 5 9 13
Wind_Direction
299 297 291 294 286 290 294 295 298 299 287 289 296 300 306 298 291 287 290 296 298 303 310 316 313 308 314 277 253 252 272 270 273 256 239 212 239 235 222 248 309 217 295 299 268 60 116
299 296 292 289 280 278 282 289 301 301 302 293 286 293 300 302 301 288 287 288 294 297 306 312 311 304 312 269 280 251 210 240 268 253 242 220 222 235 280 260 334 302 293 296 288 281 148
299 298 299 299 298 295 293 287 290 302 306 303 303 290 290 297 301 297 291 285 285 291 300 306 305 303 285 260 273 233 225 222 228 254 239 219 234 279 266 322 320 305 320 333 296 280 133
298 298 298 300 299 299 299 296 292 285 293 305 308 307 305 290 295 300 291 290 284 288 291 295 294 295 265 294 273 238 223 228 237 228 240 208 252 285 257 308 336 330 328 322 283 111 145
292 297 299 302 301 303 305 305 302 300 299 294 301 306 310 311 295 301 300 289 288 284 281 285 290 275 269 274 276 290 231 227 220 235 228 247 280 246 294 74 354 332 250 265 301 213 143
296 297 295 295 294 296 295 295 295 294 298 299 301 301 303 309 311 302 307 301 292 280 271 268 253 276 256 249 314 306 267 215 217 222 241 252 230 176 52 108 225 208 235 290 265 226 133
286 287 289 288 293 296 296 293 290 289 288 290 296 300 307 305 314 306 316 339 315 254 246 221 217 238 272 277 290 283 248 196 203 221 186 196 186 205 207 214 235 265 263 264 273 240 152
291 290 292 293 294 295 295 295 293 291 282 280 286 295 300 303 308 296 316 313 13 351 297 275 261 258 264 266 295 253 253 189 185 202 149 213 235 222 203 225 241 256 270 281 282 215 146
291 287 289 289 292 292 293 292 289 285 284 282 280 282 292 307 302 299 302 325 343 341 268 273 252 247 244 245 236 250 237 201 180 172 201 204 217 201 212 240 246 256 251 262 239 256 46
289 289 285 284 286 287 289 288 280 280 281 281 280 280 278 296 295 277 301 316 333 330 292 272 226 247 222 212 231 231 225 206 215 200 200 226 239 245 233 237 231 262 254 251 266 128 229
287 287 284 284 285 288 286 283 279 276 274 269 272 273 266 269 266 269 241 305 334 166 302 243 214 224 198 176 154 206 216 202 206 198 163 226 177 203 231 235 230 250 243 241 226 199 139
284 283 284 286 284 286 286 283 278 275 270 264 261 257 257 248 261 259 291 296 345 102 245 278 206 158 130 212 226 128 182 190 223 210 238 223 254 194 215 237 220 246 189 272 360 101 317
282 281 284 286 284 284 283 283 277 272 266 261 248 246 242 247 252 270 288 323 176 219 295 259 269 163 164 172 255 115 156 179 184 170 225 243 249 259 259 282 267 198 104 270 306 325 226
284 284 283 284 283 281 277 282 270 262 263 258 241 236 235 244 248 260 275 236 218 225 243 10 342 12 359 117 255 220 154 185 217 204 175 215 281 228 226 213 221 212 168 164 211 198 250
285 284 282 280 279 279 276 278 268 259 252 247 238 229 228 229 216 229 242 229 235 151 267 283 300 310 292 253 203 195 217 219 201 196 190 184 239 258 215 221 178 232 171 190 160 353 121
284 283 281 279 278 278 278 272 261 252 247 236 231 226 227 215 203 201 231 232 234 232 317 16 323 293 341 8 51 51 223 261 218 188 204 237 267 236 258 258 242 207 196 128 37 186 235
282 281 280 280 279 276 274 266 257 248 241 234 230 216 220 207 192 189 223 222 229 254 294 267 251 317 339 353 22 30 243 307 343 306 217 199 233 258 309 237 235 226 200 157 146 149 187
280 280 277 279 277 275 270 264 254 246 238 236 224 212 177 189 192 209 227 210 244 277 278 240 325 274 239 295 291 282 248 302 42 16 14 325 226 227 244 249 262 235 222 188 188 206 228
280 278 278 277 276 272 268 261 253 240 233 229 215 176 178 186 208 217 225 233 244 269 247 269 233 233 249 174 235 242 230 159 74 74 71 343 323 261 271 261 239 224 224 218 149 126 195
280 278 278 277 275 270 265 258 251 242 228 223 203 177 183 200 221 214 217 228 226 228 250 258 279 312 318 179 201 255 302 290 352 101 99 119 286 245 253 278 228 230 226 217 195 181 190
279 278 279 276 273 267 260 254 247 238 228 219 207 219 190 205 210 209 202 201 221 222 212 223 258 238 257 285 197 243 218 248 264 37 54 78 279 326 304 280 264 249 241 221 208 200 195
280 280 277 274 269 263 257 250 241 234 224 215 209 199 199 64 192 206 218 222 223 211 216 213 232 245 219 238 239 300 324 293 202 352 124 136 267 350 304 284 262 247 239 251 229 207 216
281 278 274 269 263 258 250 242 236 230 217 212 219 231 213 204 182 192 215 227 217 220 229 233 240 224 247 238 233 255 267 266 227 161 134 146 165 56 281 330 295 264 235 229 242 221 179
279 273 268 263 257 250 246 239 231 226 221 214 209 206 206 212 203 216 207 212 216 217 223 240 228 237 252 255 264 252 290 250 201 284 137 136 101 119 288 317 249 248 249 226 225 229 215
271 268 260 256 253 250 246 240 232 230 222 216 218 194 207 225 223 225 213 207 203 217 229 226 241 249 268 265 143 258 304 316 216 228 170 164 125 179 240 295 286 246 239 199 203 255 244
266 266 265 262 254 250 245 238 233 230 223 221 219 223 229 218 224 224 213 200 196 208 222 238 245 245 258 211 221 214 228 164 176 97 130 94 110 161 156 250 293 324 195 233 56 275 251
271 270 262 256 258 248 240 235 231 227 222 218 219 219 206 231 239 202 200 207 198 189 215 196 219 233 236 213 218 239 237 193 188 156 167 103 299 217 175 220 252 249 302 240 200 262 324
275 270 260 253 247 245 243 238 230 224 218 213 216 222 204 214 249 231 215 194 194 200 203 196 168 211 155 195 189 210 199 216 175 169 168 165 171 213 164 183 249 79 323 47 296 317 334
275 269 263 255 252 246 244 234 226 220 215 211 205 215 205 203 228 243 248 222 214 207 205 187 192 158 186 168 219 150 188 344 149 219 151 203 190 187 193 216 270 197 2 300 328 311 333